[Date Prev][Date Next][Thread Prev][Thread Next] - [Date Index][Thread Index][Author Index]
2 Line ISS Keps 1-11
- Subject: [sarex] 2 Line ISS Keps 1-11
- From: "Dave Larsen PhD" <doc@xxxxxxxxxxx>
- Date: Tue, 10 Jan 2006 19:06:38 -0800
ISS
1 25544U 98067A 06011.02549769 .00012305 00000-0 88824-4 0 1290
2 25544 051.6448 275.5514 0010870 140.2870 062.3620 15.73930913408391
----
Via the sarex mailing list at AMSAT.ORG courtesy of AMSAT-NA.
To unsubscribe, send "unsubscribe sarex" to Majordomo@amsat.org
AMSAT Home